Cloud_Cover
0 0 0 0 0 14 100 99 86 100 100 100 100 100 100 100 100 100 100 100 100 100 100 100 100 100 100 100 100 100 57 12 68 72 46 48 99 100 100 100 100 100 100 100
0 0 2 2 24 3 5 26 74 82 100 100 100 100 100 100 80 58 94 89 91 100 100 100 88 91 90 90 82 94 90 100 100 100 100 100 100 100 100 100 100 100 100 100
0 2 2 15 1 0 0 20 69 43 99 100 100 100 100 100 76 70 100 100 99 100 100 95 96 85 90 95 80 22 61 100 100 100 92 8 16 47 38 26 12 42 44 72
4 10 0 0 0 0 7 21 96 83 90 100 100 100 100 100 75 100 100 100 100 100 100 66 64 89 78 76 18 28 100 100 100 64 11 39 88 88 95 99 100 58 19 4
0 0 0 0 0 4 41 10 77 93 90 69 100 100 100 100 100 100 98 100 100 100 100 100 100 42 100 22 100 100 100 100 100 100 100 99 100 96 52 5 5 5 0 0
2 0 0 64 88 24 5 95 100 93 15 7 7 82 100 100 100 100 100 100 100 100 100 100 100 100 100 100 100 100 100 100 100 67 23 6 5 5 4 0 0 0 0 0
4 3 81 100 100 100 99 98 88 66 5 2 5 12 5 60 86 100 100 100 100 100 100 100 100 100 100 100 100 100 100 55 8 5 0 0 0 0 0 0 0 0 0 0
95 15 7 100 100 100 100 100 100 11 1 2 5 5 5 5 5 5 47 97 100 100 100 100 82 100 100 100 94 27 5 5 4 0 0 0 0 0 0 0 0 2 4 4
100 48 5 100 100 100 100 100 100 73 3 0 0 4 4 5 5 5 5 5 22 14 5 5 5 5 5 5 5 1 0 0 0 0 0 0 0 0 5 5 5 5 4 5
82 56 16 5 98 100 100 100 90 29 1 0 0 0 0 0 0 2 3 1 2 4 5 5 4 0 0 0 0 0 0 0 0 0 1 4 6 10 9 5 5 5 5 5
5 5 0 5 6 5 15 30 4 0 0 0 0 0 0 0 0 0 0 0 0 5 2 0 0 0 0 0 0 1 3 32 56 94 100 100 100 88 61 25 5 5 5 5
72 54 100 96 53 48 23 5 5 5 2 4 0 0 0 0 0 0 2 0 0 4 0 0 0 0 0 4 9 96 100 100 100 100 100 100 94 60 48 52 8 5 5 5
100 99 100 100 100 100 100 96 68 20 5 5 4 0 0 0 0 0 0 0 0 0 0 0 2 5 5 5 22 34 38 27 13 5 5 5 4 5 4 4 0 0 0 0
100 100 100 87 69 18 8 5 5 5 5 0 1 0 0 0 0 0 0 0 0 0 5 5 5 4 5 5 5 5 4 3 0 0 0 0 0 0 0 0 0 0 2 4
89 84 59 62 70 61 35 8 5 5 5 5 1 5 0 0 0 0 0 0 0 0 0 3 3 3 1 0 0 0 0 0 0 0 0 0 9 26 52 74 86 91 90 85
100 100 100 100 50 25 47 5 5 5 5 5 2 5 0 0 0 0 0 0 0 0 0 0 0 0 0 0 0 0 0 0 0 25 100 100 100 100 100 99 39 5 1 0
100 100 97 95 50 70 70 5 5 5 5 4 3 5 5 2 4 5 2 0 0 0 0 0 0 0 0 0 0 0 0 5 69 100 100 100 100 61 5 3 0 0 0 5
100 100 100 91 28 84 54 23 5 5 5 5 5 5 5 1 0 0 0 0 0 0 0 0 0 0 0 0 0 0 0 12 100 100 100 99 42 5 2 0 0 3 5 5
98 84 92 63 16 6 5 5 5 5 5 5 5 2 0 0 0 0 0 0 0 0 0 0 0 0 0 0 0 0 7 89 100 98 42 5 5 2 0 0 5 5 5 78
16 6 17 34 5 5 5 5 5 5 4 0 0 0 0 0 0 0 0 0 0 0 0 0 0 0 0 0 0 5 82 100 82 5 4 0 0 3 5 5 5 61 90 100
42 94 49 25 8 4 2 0 0 0 0 0 0 0 0 0 0 0 0 0 0 0 0 0 0 0 0 0 5 36 67 6 5 0 2 5 5 5 5 5 31 77 100 100
0 0 0 0 0 0 0 0 0 0 0 0 0 0 0 0 0 0 0 0 0 0 0 0 0 2 0 4 5 10 5 5 3 4 5 5 5 5 5 9 51 100 100 100
0 0 0 0 0 0 0 0 0 0 0 0 0 0 0 0 0 0 0 0 0 0 5 5 5 0 3 5 5 5 5 5 1 5 5 5 5 76 9 8 73 100 100 100
0 0 0 0 0 0 0 0 0 0 0 0 0 0 0 0 0 0 0 0 0 2 5 8 3 3 5 5 5 5 5 5 5 5 5 5 68 65 9 91 100 100 100 100
0 0 0 0 0 0 0 0 0 0 0 0 0 0 0 0 0 0 0 0 0 5 5 5 5 5 5 5 5 5 5 5 5 5 5 5 58 11 56 100 100 100 100 100
0 0 0 0 0 0 0 0 0 0 0 0 0 2 6 5 4 0 0 4 5 5 1 4 5 5 4 5 5 5 5 5 5 5 5 51 20 67 100 100 100 100 100 100